星链-11210 [DTC] (STARLINK-11210 [DTC] )

导读 | 豆包AI

STARLINK-11210是美国于北京时间2024年6月24日08:00发射的星链卫星,隶属于SpaceX公司的星链星座项目。星链项目旨在构建全球卫星互联网星座,为全球用户提供低延迟、高速的宽带网络服务,该卫星入轨后将进一步扩充星链星座的卫星规模,提升星座服务覆盖能力与网络性能。

基本信息
目录编号:
60116
目录名称:
STARLINK-11210
国际标识:
2024-118D
轨道中心:
EARTH
卫星名称:
星链-11210 [DTC]
卫星全名:
星链-11210 [DTC] (STARLINK-11210 [DTC] )
卫星状态:
在轨 (已飞行700 天)
发射日期:
2024-06-24 UTC
国别 :
美国 (US)
星等 :
--
轨道信息
数据来源 国际轨道数据
星历时间: 2026-05-24T05:32:54+0800
1天前
查看轨道信息
半长轴: 6738.346km
偏心率: 0.0001294
轨道倾角: 53.160°
近地点辐角 128.127°
升交点赤经 210.657°
平近点角 231.987°
近地点: 359.337km
远地点: 361.081km
周期: 91.747分钟
每日圈数: 15.695418
详细信息
固有亮度:
5
最大亮度:
0.3
卫星平台:
Starlink v2.0 mini
覆盖范围:
全球
运营商:
太空探索技术公司
运营商所在国:
美国
制造商(研发单位):
太空探索技术公司
制造商所在国:
美国
使用方式:
暂无
卫星简介
星链(Starlink)计划是由太空探索技术公司(SpaceX)提出的一个巨型低轨卫星互联网星座项目,计划在2019年至2024年间在太空搭建由约1.2万颗卫星组成的“星链”网络,其中1584颗将部署在地球上空550千米处的近地轨道,并从2020年开始工作。该卫星仍在工作。
2D轨道图
3D轨道图
轨道高度分析图
轨道倾角分析图
轨道综合分析图
查看轨道综合分析图